Flag for U.S.A. Weather past 2 weeks in Austin, Texas, U.S.A.

Now
38 °F

Clear.


Feels Like: 38 °F
Forecast: 31 / 61 °F
Wind: No wind

Location: Camp Mabry / Austin City

Current Time: Dec 28, 2014 at 8:41:11 PM

Latest Report: Dec 28, 2014 at 7:51 PM


Visibility: 10 mi

Pressure: 30.21 "Hg

Humidity: 73%

Dew point: 30 °F

Location of AustinLocation

Historic Weather in Austin — Graph

°F

Austin temperature yesterday

Maximum temperature yesterday: 66 °F (at 12:00 AM)
Minimum temperature yesterday: 41 °F (at 11:51 PM)
Average temperature yesterday: 52 °F

Past Weeks' High & Low Weather Summary

 TemperatureHumidityPressure
High74 °F (Dec 22, 12:51 PM)100% (Dec 18, 2:51 AM)30.37 "Hg (Dec 18, 2:51 AM)
Low34 °F (Dec 25, 1:51 AM)23% (Dec 15, 2:51 PM)29.60 "Hg (Dec 22, 3:51 PM)
Average54 °F74%30.05 "Hg
* Reported Dec 13 6:51 PM — Dec 28 6:51 PM, Austin, Weather by CustomWeather, © 2014

Note: Actual official high and low records may vary slightly from our data, if they occured in-between our weather recording intervals... More about our weather records

Advertising

Austin weather history for previous 24 hours

 ConditionsComfort  
Time TempWeatherWind HumidityBarometerVisibility
6:51 PM
Dec 28
39 °FClear.No wind73%30.20 "Hg10 mi
5:51 PM42 °FClear.No wind57%30.18 "Hg10 mi
4:51 PM45 °FSunny.No wind49%30.18 "Hg10 mi
3:51 PM46 °FOvercast.No wind51%30.20 "Hg10 mi
2:51 PM44 °FOvercast.6 mph55%30.22 "Hg10 mi
1:51 PM42 °FOvercast.7 mph62%30.25 "Hg10 mi
12:51 PM41 °FOvercast.7 mph67%30.26 "Hg10 mi
11:51 AM40 °FOvercast.7 mph77%30.28 "Hg10 mi
10:51 AM37 °FOvercast.No wind86%30.32 "Hg10 mi
9:51 AM36 °FOvercast.3 mph92%30.32 "Hg10 mi
8:51 AM35 °FLight rain. Mostly cloudy.6 mph92%30.32 "Hg8 mi
7:51 AM35 °FLight rain. Mostly cloudy.5 mph88%30.32 "Hg7 mi
6:51 AM35 °FLight rain. Overcast.9 mph85%30.27 "Hg10 mi
5:51 AM35 °FLight rain. Overcast.6 mph85%30.26 "Hg10 mi
4:51 AM38 °FOvercast.10 mph63%30.27 "Hg10 mi
3:51 AM39 °FOvercast.8 mph60%30.27 "Hg10 mi
2:51 AM39 °FOvercast.8 mph62%30.27 "Hg10 mi
1:51 AM40 °FOvercast.7 mph65%30.27 "Hg10 mi
12:51 AM40 °FOvercast.10 mph68%30.26 "Hg10 mi
11:51 PM
Dec 27
41 °FOvercast.13 mph70%30.28 "Hg10 mi
10:51 PM42 °FOvercast.12 mph71%30.29 "Hg10 mi
9:51 PM42 °FOvercast.8 mph73%30.29 "Hg10 mi
8:51 PM42 °FOvercast.9 mph73%30.28 "Hg10 mi
Weather by CustomWeather, © 2014

See weather overviewHow to use our weather pages